Wetterdaten: Montag, 28.09.2015
Datum Zeit Auen-Temp. Temp gefhlt Luftfeuchte Luftdruck Regen Wind Richtung Richtung Taupunkt Windben
28.09.2015 00:00 3,2 C 2,8 C 84 % 1028,2 hPa 0,0 mm 0,0 km/h (0 Bft) O-SO 112 0,8 C 0,0 km/h (0 Bft)
28.09.2015 00:05 3,0 C 2,6 C 84 % 1028,2 hPa 0,0 mm 0,0 km/h (0 Bft) O-SO 112 0,6 C 0,0 km/h (0 Bft)
28.09.2015 00:10 2,9 C 2,5 C 85 % 1028,2 hPa 0,0 mm 0,0 km/h (0 Bft) O-SO 112 0,6 C 0,0 km/h (0 Bft)
28.09.2015 00:15 2,7 C 2,3 C 85 % 1028,1 hPa 0,0 mm 0,0 km/h (0 Bft) O-SO 112 0,4 C 0,0 km/h (0 Bft)
28.09.2015 00:20 2,9 C 2,4 C 85 % 1028,1 hPa 0,0 mm 0,0 km/h (0 Bft) S-SO 157 0,6 C 0,0 km/h (0 Bft)
28.09.2015 00:25 2,9 C 2,4 C 85 % 1028,1 hPa 0,0 mm 0,0 km/h (0 Bft) S-SO 157 0,6 C 0,0 km/h (0 Bft)
28.09.2015 00:30 2,8 C 2,4 C 86 % 1028,1 hPa 0,0 mm 0,0 km/h (0 Bft) S 180 0,7 C 0,0 km/h (0 Bft)
28.09.2015 00:35 2,6 C 2,3 C 86 % 1028,1 hPa 0,0 mm 0,0 km/h (0 Bft) S 180 0,5 C 0,0 km/h (0 Bft)
28.09.2015 00:40 2,3 C 2,0 C 86 % 1028,1 hPa 0,0 mm 0,0 km/h (0 Bft) S 180 0,2 C 0,0 km/h (0 Bft)
28.09.2015 00:45 2,5 C 2,1 C 86 % 1028,1 hPa 0,0 mm 0,0 km/h (0 Bft) S 180 0,4 C 0,0 km/h (0 Bft)
28.09.2015 00:50 2,4 C 2,0 C 86 % 1028,1 hPa 0,0 mm 0,0 km/h (0 Bft) O-SO 112 0,3 C 0,0 km/h (0 Bft)
28.09.2015 00:55 2,4 C 2,0 C 86 % 1028,2 hPa 0,0 mm 0,0 km/h (0 Bft) S-SW 202 0,3 C 0,0 km/h (0 Bft)
28.09.2015 01:00 2,6 C 2,3 C 87 % 1028,2 hPa 0,0 mm 0,0 km/h (0 Bft) W 270 0,7 C 0,0 km/h (0 Bft)
28.09.2015 01:05 2,3 C 2,1 C 86 % 1028,2 hPa 0,0 mm 0,0 km/h (0 Bft) W 270 0,2 C 0,0 km/h (0 Bft)
28.09.2015 01:10 2,1 C 1,9 C 86 % 1028,2 hPa 0,0 mm 0,0 km/h (0 Bft) W 270 0,0 C 0,0 km/h (0 Bft)
28.09.2015 01:15 2,5 C 2,2 C 87 % 1028,1 hPa 0,0 mm 0,5 km/h (0 Bft) S 180 0,6 C 2,8 km/h (1 Bft)
28.09.2015 01:20 2,9 C 2,8 C 85 % 1028,1 hPa 0,0 mm 0,5 km/h (0 Bft) S 180 0,6 C 0,0 km/h (0 Bft)
28.09.2015 01:25 2,7 C 2,6 C 88 % 1028,1 hPa 0,0 mm 0,0 km/h (0 Bft) S-SO 157 0,9 C 0,0 km/h (0 Bft)
28.09.2015 01:30 3,3 C 3,3 C 85 % 1028,1 hPa 0,0 mm 0,8 km/h (0 Bft) SO 135 1,0 C 4,4 km/h (1 Bft)
28.09.2015 01:35 3,0 C 2,9 C 89 % 1028,2 hPa 0,0 mm 1,0 km/h (0 Bft) S-SW 202 1,4 C 2,8 km/h (1 Bft)
28.09.2015 01:40 3,1 C 3,3 C 85 % 1028,2 hPa 0,0 mm 0,3 km/h (0 Bft) S 180 0,8 C 3,1 km/h (1 Bft)
28.09.2015 01:45 3,1 C 3,0 C 90 % 1028,2 hPa 0,0 mm 0,3 km/h (0 Bft) SO 135 1,6 C 0,0 km/h (0 Bft)
28.09.2015 01:50 2,6 C 2,5 C 91 % 1028,2 hPa 0,0 mm 0,3 km/h (0 Bft) S 180 1,3 C 0,0 km/h (0 Bft)
28.09.2015 01:54 3,2 C 3,0 C 86 % 1028,2 hPa 0,0 mm 0,3 km/h (0 Bft) N-NW 337 1,1 C 0,0 km/h (0 Bft)
28.09.2015 01:55 3,2 C 3,0 C 86 % 1028,2 hPa 0,0 mm 0,3 km/h (0 Bft) N-NW 337 1,1 C 0,0 km/h (0 Bft)
28.09.2015 02:00 3,2 C 3,1 C 86 % 1028,2 hPa 0,0 mm 0,3 km/h (0 Bft) S 180 1,1 C 0,0 km/h (0 Bft)
28.09.2015 02:05 3,3 C 3,1 C 86 % 1028,2 hPa 0,0 mm 0,3 km/h (0 Bft) SO 135 1,2 C 0,0 km/h (0 Bft)
28.09.2015 02:10 2,5 C 2,5 C 91 % 1028,2 hPa 0,0 mm 0,3 km/h (0 Bft) S-SW 202 1,2 C 0,0 km/h (0 Bft)
28.09.2015 02:15 2,5 C 2,4 C 91 % 1028,5 hPa 0,0 mm 0,0 km/h (0 Bft) S 180 1,2 C 0,0 km/h (0 Bft)
28.09.2015 02:20 2,7 C 2,5 C 91 % 1028,5 hPa 0,0 mm 0,0 km/h (0 Bft) S 180 1,4 C 0,0 km/h (0 Bft)
28.09.2015 02:25 2,6 C 2,4 C 91 % 1028,5 hPa 0,0 mm 0,0 km/h (0 Bft) S-SO 157 1,3 C 0,0 km/h (0 Bft)
28.09.2015 02:30 2,4 C 2,3 C 91 % 1028,5 hPa 0,0 mm 0,0 km/h (0 Bft) S 180 1,1 C 0,0 km/h (0 Bft)
28.09.2015 02:35 2,2 C 2,1 C 91 % 1028,4 hPa 0,0 mm 0,0 km/h (0 Bft) S 180 0,9 C 0,0 km/h (0 Bft)
28.09.2015 02:40 1,7 C 1,6 C 90 % 1028,4 hPa 0,0 mm 0,0 km/h (0 Bft) S 180 0,2 C 0,0 km/h (0 Bft)
28.09.2015 02:45 1,7 C 1,5 C 90 % 1028,4 hPa 0,0 mm 0,0 km/h (0 Bft) S 180 0,2 C 0,0 km/h (0 Bft)
28.09.2015 02:50 1,6 C 1,4 C 90 % 1028,4 hPa 0,0 mm 0,0 km/h (0 Bft) S 180 0,1 C 0,0 km/h (0 Bft)
28.09.2015 02:55 1,5 C 1,3 C 90 % 1028,3 hPa 0,0 mm 0,0 km/h (0 Bft) S 180 0,0 C 0,0 km/h (0 Bft)
28.09.2015 03:00 2,1 C 1,8 C 86 % 1028,3 hPa 0,0 mm 0,5 km/h (0 Bft) S 180 0,0 C 4,4 km/h (1 Bft)
28.09.2015 03:05 2,4 C 2,2 C 87 % 1028,3 hPa 0,0 mm 0,8 km/h (0 Bft) S 180 0,5 C 0,0 km/h (0 Bft)
28.09.2015 03:10 2,0 C 1,9 C 91 % 1028,3 hPa 0,0 mm 1,3 km/h (1 Bft) S 180 0,7 C 0,0 km/h (0 Bft)
28.09.2015 03:15 1,7 C 1,6 C 91 % 1028,2 hPa 0,0 mm 0,8 km/h (0 Bft) S 180 0,4 C 0,0 km/h (0 Bft)
28.09.2015 03:20 1,8 C 1,6 C 91 % 1028,2 hPa 0,0 mm 0,8 km/h (0 Bft) S 180 0,5 C 4,7 km/h (1 Bft)
28.09.2015 03:25 2,1 C 2,0 C 87 % 1028,2 hPa 0,0 mm 1,6 km/h (1 Bft) S 180 0,2 C 0,0 km/h (0 Bft)
28.09.2015 03:30 2,2 C 2,1 C 87 % 1028,2 hPa 0,0 mm 1,3 km/h (1 Bft) S 180 0,3 C 0,0 km/h (0 Bft)
28.09.2015 03:35 2,1 C 2,0 C 92 % 1028,2 hPa 0,0 mm 0,8 km/h (0 Bft) S 180 0,9 C 0,0 km/h (0 Bft)
28.09.2015 03:40 1,6 C 1,5 C 91 % 1028,2 hPa 0,0 mm 0,0 km/h (0 Bft) S-SO 157 0,3 C 0,0 km/h (0 Bft)
28.09.2015 03:45 1,8 C 1,8 C 88 % 1028,2 hPa 0,0 mm 0,0 km/h (0 Bft) S 180 0,0 C 0,0 km/h (0 Bft)
28.09.2015 03:50 1,5 C 1,4 C 91 % 1028,2 hPa 0,0 mm 0,0 km/h (0 Bft) S 180 0,2 C 0,0 km/h (0 Bft)
28.09.2015 03:55 1,3 C 1,1 C 91 % 1027,9 hPa 0,0 mm 0,0 km/h (0 Bft) S 180 -0,0 C 0,0 km/h (0 Bft)
28.09.2015 04:00 1,5 C 1,3 C 92 % 1027,9 hPa 0,0 mm 0,0 km/h (0 Bft) SW 225 0,3 C 0,0 km/h (0 Bft)
28.09.2015 04:05 1,5 C 1,3 C 91 % 1027,9 hPa 0,0 mm 0,0 km/h (0 Bft) S 180 0,2 C 0,0 km/h (0 Bft)
28.09.2015 04:10 1,1 C 0,9 C 91 % 1027,9 hPa 0,0 mm 0,0 km/h (0 Bft) SW 225 -0,2 C 0,0 km/h (0 Bft)
28.09.2015 04:15 1,1 C 0,9 C 91 % 1027,9 hPa 0,0 mm 0,0 km/h (0 Bft) S 180 -0,2 C 0,0 km/h (0 Bft)
28.09.2015 04:20 0,9 C 0,7 C 91 % 1027,9 hPa 0,0 mm 0,0 km/h (0 Bft) S 180 -0,4 C 0,0 km/h (0 Bft)
28.09.2015 04:25 1,1 C 0,9 C 91 % 1027,9 hPa 0,0 mm 0,3 km/h (0 Bft) S 180 -0,2 C 2,8 km/h (1 Bft)
28.09.2015 04:30 0,9 C 0,8 C 91 % 1027,9 hPa 0,0 mm 0,3 km/h (0 Bft) S-SO 157 -0,4 C 0,0 km/h (0 Bft)
28.09.2015 04:35 0,7 C 0,6 C 91 % 1027,9 hPa 0,0 mm 0,3 km/h (0 Bft) S-SO 157 -0,6 C 0,0 km/h (0 Bft)
28.09.2015 04:40 0,9 C 0,6 C 91 % 1027,9 hPa 0,0 mm 0,0 km/h (0 Bft) S-SW 202 -0,4 C 0,0 km/h (0 Bft)
28.09.2015 04:45 0,7 C 0,4 C 91 % 1027,9 hPa 0,0 mm 0,0 km/h (0 Bft) S-SW 202 -0,6 C 0,0 km/h (0 Bft)
28.09.2015 04:50 0,7 C 0,3 C 91 % 1027,9 hPa 0,0 mm 0,0 km/h (0 Bft) S-SW 202 -0,6 C 0,0 km/h (0 Bft)
28.09.2015 04:55 0,6 C 0,2 C 91 % 1028,0 hPa 0,0 mm 0,0 km/h (0 Bft) S 180 -0,7 C 0,0 km/h (0 Bft)
28.09.2015 05:00 0,5 C 0,1 C 91 % 1028,0 hPa 0,0 mm 0,0 km/h (0 Bft) S-SW 202 -0,8 C 0,0 km/h (0 Bft)
28.09.2015 05:05 0,6 C 0,2 C 91 % 1028,0 hPa 0,0 mm 0,0 km/h (0 Bft) S-SW 202 -0,7 C 0,0 km/h (0 Bft)
28.09.2015 05:10 0,4 C 0,0 C 91 % 1028,0 hPa 0,0 mm 0,0 km/h (0 Bft) S-SW 202 -0,9 C 0,0 km/h (0 Bft)
28.09.2015 05:15 0,5 C 0,1 C 91 % 1027,9 hPa 0,0 mm 0,0 km/h (0 Bft) S-SW 202 -0,8 C 0,0 km/h (0 Bft)
28.09.2015 05:20 0,5 C 0,2 C 91 % 1027,9 hPa 0,0 mm 0,0 km/h (0 Bft) S-SW 202 -0,8 C 6,2 km/h (2 Bft)
28.09.2015 05:25 0,5 C 0,1 C 91 % 1027,9 hPa 0,0 mm 0,0 km/h (0 Bft) S-SW 202 -0,8 C 0,0 km/h (0 Bft)
28.09.2015 05:30 0,5 C 0,1 C 91 % 1027,9 hPa 0,0 mm 0,0 km/h (0 Bft) S-SW 202 -0,8 C 0,0 km/h (0 Bft)
28.09.2015 05:35 0,5 C 0,2 C 92 % 1028,0 hPa 0,0 mm 0,0 km/h (0 Bft) S-SO 157 -0,6 C 0,0 km/h (0 Bft)
28.09.2015 05:40 1,1 C 1,2 C 88 % 1028,0 hPa 0,0 mm 0,5 km/h (0 Bft) SO 135 -0,7 C 7,8 km/h (2 Bft)
28.09.2015 05:45 1,3 C 1,4 C 88 % 1028,0 hPa 0,0 mm 0,5 km/h (0 Bft) NO 45 -0,5 C 0,0 km/h (0 Bft)
28.09.2015 05:50 1,8 C 2,2 C 88 % 1028,0 hPa 0,0 mm 0,0 km/h (0 Bft) O-NO 67 0,0 C 0,0 km/h (0 Bft)
28.09.2015 05:55 2,1 C 2,5 C 93 % 1027,9 hPa 0,0 mm 0,0 km/h (0 Bft) NW 315 1,1 C 2,6 km/h (1 Bft)
28.09.2015 06:00 2,5 C 2,7 C 88 % 1027,9 hPa 0,0 mm 1,3 km/h (1 Bft) W-SW 247 0,7 C 5,2 km/h (1 Bft)
28.09.2015 06:05 2,7 C 2,9 C 93 % 1027,9 hPa 0,0 mm 1,3 km/h (1 Bft) W-SW 247 1,7 C 0,0 km/h (0 Bft)
28.09.2015 06:10 2,2 C 2,8 C 93 % 1027,9 hPa 0,0 mm 0,5 km/h (0 Bft) S-SW 202 1,2 C 0,0 km/h (0 Bft)
28.09.2015 06:15 2,3 C 2,7 C 93 % 1028,0 hPa 0,0 mm 0,0 km/h (0 Bft) W 270 1,3 C 0,0 km/h (0 Bft)
28.09.2015 06:20 2,3 C 2,6 C 93 % 1028,0 hPa 0,0 mm 0,0 km/h (0 Bft) SW 225 1,3 C 0,0 km/h (0 Bft)
28.09.2015 06:25 2,4 C 2,6 C 88 % 1028,0 hPa 0,0 mm 0,0 km/h (0 Bft) S-SW 202 0,6 C 0,0 km/h (0 Bft)
28.09.2015 06:30 2,5 C 2,7 C 88 % 1028,0 hPa 0,0 mm 0,3 km/h (0 Bft) S 180 0,7 C 0,0 km/h (0 Bft)
28.09.2015 06:35 2,7 C 2,8 C 88 % 1028,2 hPa 0,0 mm 0,5 km/h (0 Bft) S 180 0,9 C 2,8 km/h (1 Bft)
28.09.2015 06:40 3,1 C 3,1 C 87 % 1028,2 hPa 0,0 mm 1,0 km/h (0 Bft) S-SW 202 1,2 C 3,4 km/h (1 Bft)
28.09.2015 06:45 3,3 C 3,3 C 88 % 1028,2 hPa 0,0 mm 0,8 km/h (0 Bft) S 180 1,5 C 0,0 km/h (0 Bft)
28.09.2015 06:50 3,3 C 3,2 C 92 % 1028,2 hPa 0,0 mm 0,8 km/h (0 Bft) S 180 2,1 C 0,0 km/h (0 Bft)
28.09.2015 06:55 3,3 C 3,3 C 88 % 1028,0 hPa 0,0 mm 0,5 km/h (0 Bft) S 180 1,5 C 0,0 km/h (0 Bft)
28.09.2015 07:00 3,3 C 3,3 C 88 % 1028,0 hPa 0,0 mm 0,3 km/h (0 Bft) SO 135 1,5 C 0,0 km/h (0 Bft)
28.09.2015 07:05 3,4 C 3,4 C 88 % 1028,0 hPa 0,0 mm 0,3 km/h (0 Bft) SO 135 1,6 C 0,0 km/h (0 Bft)
28.09.2015 07:10 3,4 C 3,4 C 88 % 1028,0 hPa 0,0 mm 0,0 km/h (0 Bft) S-SO 157 1,6 C 0,0 km/h (0 Bft)
28.09.2015 07:15 3,4 C 3,4 C 88 % 1028,2 hPa 0,0 mm 0,0 km/h (0 Bft) W-SW 247 1,6 C 0,0 km/h (0 Bft)
28.09.2015 07:20 3,4 C 3,4 C 88 % 1028,2 hPa 0,0 mm 0,0 km/h (0 Bft) W-NW 292 1,6 C 0,0 km/h (0 Bft)
28.09.2015 07:25 3,4 C 3,4 C 88 % 1028,2 hPa 0,0 mm 0,0 km/h (0 Bft) W 270 1,6 C 0,0 km/h (0 Bft)
28.09.2015 07:30 3,4 C 3,5 C 88 % 1028,2 hPa 0,0 mm 0,3 km/h (0 Bft) W-SW 247 1,6 C 2,6 km/h (1 Bft)
28.09.2015 07:35 3,4 C 3,4 C 92 % 1028,5 hPa 0,0 mm 0,8 km/h (0 Bft) S 180 2,2 C 0,0 km/h (0 Bft)
28.09.2015 07:40 3,3 C 3,4 C 88 % 1028,5 hPa 0,0 mm 0,8 km/h (0 Bft) SW 225 1,5 C 0,0 km/h (0 Bft)
28.09.2015 07:45 3,4 C 3,5 C 88 % 1028,5 hPa 0,0 mm 0,3 km/h (0 Bft) SW 225 1,6 C 0,0 km/h (0 Bft)
28.09.2015 07:50 3,2 C 3,4 C 88 % 1028,5 hPa 0,0 mm 0,5 km/h (0 Bft) W-SW 247 1,4 C 0,0 km/h (0 Bft)
28.09.2015 07:55 3,2 C 3,4 C 88 % 1028,5 hPa 0,0 mm 1,6 km/h (1 Bft) S 180 1,4 C 0,0 km/h (0 Bft)
28.09.2015 08:00 3,2 C 3,4 C 88 % 1028,5 hPa 0,0 mm 1,6 km/h (1 Bft) S 180 1,4 C 0,0 km/h (0 Bft)
28.09.2015 08:05 3,3 C 3,6 C 88 % 1028,5 hPa 0,0 mm 0,5 km/h (0 Bft) S 180 1,5 C 0,0 km/h (0 Bft)
28.09.2015 08:10 3,5 C 3,8 C 88 % 1028,5 hPa 0,0 mm 0,0 km/h (0 Bft) W-SW 247 1,7 C 0,0 km/h (0 Bft)
28.09.2015 08:15 3,6 C 3,8 C 88 % 1028,6 hPa 0,0 mm 0,5 km/h (0 Bft) NW 315 1,8 C 0,0 km/h (0 Bft)
28.09.2015 08:20 3,7 C 4,0 C 88 % 1028,6 hPa 0,0 mm 0,5 km/h (0 Bft) NO 45 1,9 C 0,0 km/h (0 Bft)
28.09.2015 08:25 3,7 C 4,1 C 88 % 1028,6 hPa 0,0 mm 0,0 km/h (0 Bft) O-NO 67 1,9 C 0,0 km/h (0 Bft)
28.09.2015 08:30 3,7 C 4,1 C 88 % 1028,6 hPa 0,0 mm 0,0 km/h (0 Bft) SO 135 1,9 C 0,0 km/h (0 Bft)
28.09.2015 08:35 3,7 C 4,3 C 88 % 1028,2 hPa 0,0 mm 0,0 km/h (0 Bft) O-NO 67 1,9 C 0,0 km/h (0 Bft)
28.09.2015 08:40 3,8 C 4,4 C 88 % 1028,2 hPa 0,0 mm 0,0 km/h (0 Bft) N 360 2,0 C 0,0 km/h (0 Bft)
28.09.2015 08:45 4,0 C 4,4 C 88 % 1028,2 hPa 0,0 mm 0,5 km/h (0 Bft) N-NW 337 2,2 C 3,1 km/h (1 Bft)
28.09.2015 08:50 4,0 C 4,5 C 88 % 1028,2 hPa 0,0 mm 1,3 km/h (1 Bft) N-NW 337 2,2 C 0,0 km/h (0 Bft)
28.09.2015 08:55 4,1 C 4,6 C 88 % 1028,8 hPa 0,0 mm 0,8 km/h (0 Bft) NO 45 2,3 C 0,0 km/h (0 Bft)
28.09.2015 09:00 4,1 C 4,9 C 88 % 1028,8 hPa 0,0 mm 0,5 km/h (0 Bft) NO 45 2,3 C 3,1 km/h (1 Bft)
28.09.2015 09:05 4,1 C 4,8 C 88 % 1028,8 hPa 0,0 mm 1,0 km/h (0 Bft) N-NO 22 2,3 C 3,6 km/h (1 Bft)
28.09.2015 09:10 4,0 C 4,8 C 88 % 1028,8 hPa 0,0 mm 2,6 km/h (1 Bft) NO 45 2,2 C 5,2 km/h (1 Bft)
28.09.2015 09:15 4,1 C 4,9 C 88 % 1029,0 hPa 0,0 mm 2,6 km/h (1 Bft) O-NO 67 2,3 C 0,0 km/h (0 Bft)
28.09.2015 09:20 4,2 C 5,0 C 88 % 1029,0 hPa 0,0 mm 1,3 km/h (1 Bft) NW 315 2,4 C 0,0 km/h (0 Bft)
28.09.2015 09:25 4,2 C 4,9 C 88 % 1029,0 hPa 0,0 mm 1,0 km/h (0 Bft) NW 315 2,4 C 4,7 km/h (1 Bft)
28.09.2015 09:30 4,4 C 5,4 C 88 % 1029,0 hPa 0,0 mm 2,1 km/h (1 Bft) N-NO 22 2,6 C 4,7 km/h (1 Bft)
28.09.2015 09:35 4,5 C 7,2 C 88 % 1029,1 hPa 0,0 mm 3,6 km/h (1 Bft) O-NO 67 2,7 C 9,3 km/h (2 Bft)
28.09.2015 09:40 4,6 C 9,0 C 88 % 1029,1 hPa 0,0 mm 4,1 km/h (1 Bft) O-SO 112 2,8 C 4,7 km/h (1 Bft)
28.09.2015 09:45 4,5 C 9,9 C 88 % 1029,1 hPa 0,0 mm 4,4 km/h (1 Bft) NO 45 2,7 C 9,8 km/h (2 Bft)
28.09.2015 09:50 5,2 C 10,6 C 88 % 1029,1 hPa 0,0 mm 4,4 km/h (1 Bft) NO 45 3,4 C 11,9 km/h (2 Bft)
28.09.2015 09:55 5,4 C 10,9 C 88 % 1029,5 hPa 0,0 mm 5,2 km/h (1 Bft) O-NO 67 3,6 C 4,4 km/h (1 Bft)
28.09.2015 10:00 5,4 C 10,2 C 88 % 1029,5 hPa 0,0 mm 5,7 km/h (1 Bft) S-SW 202 3,6 C 12,2 km/h (2 Bft)
28.09.2015 10:05 5,4 C 9,1 C 88 % 1029,5 hPa 0,0 mm 5,7 km/h (1 Bft) W 270 3,6 C 6,0 km/h (2 Bft)
28.09.2015 10:10 5,6 C 9,1 C 88 % 1029,5 hPa 0,0 mm 7,0 km/h (2 Bft) NO 45 3,8 C 15,5 km/h (3 Bft)
28.09.2015 10:15 5,9 C 9,7 C 88 % 1030,0 hPa 0,0 mm 6,5 km/h (2 Bft) NO 45 4,1 C 5,2 km/h (1 Bft)
28.09.2015 10:20 6,5 C 10,9 C 87 % 1030,0 hPa 0,0 mm 7,5 km/h (2 Bft) S-SO 157 4,5 C 10,4 km/h (2 Bft)
28.09.2015 10:25 6,4 C 11,2 C 87 % 1030,0 hPa 0,0 mm 6,5 km/h (2 Bft) O-SO 112 4,4 C 11,9 km/h (2 Bft)
28.09.2015 10:30 6,2 C 10,8 C 86 % 1030,0 hPa 0,0 mm 6,5 km/h (2 Bft) SO 135 4,0 C 10,9 km/h (2 Bft)
28.09.2015 10:35 6,2 C 10,7 C 86 % 1030,2 hPa 0,0 mm 7,5 km/h (2 Bft) O-NO 67 4,0 C 12,4 km/h (3 Bft)
28.09.2015 10:40 6,9 C 11,6 C 86 % 1030,2 hPa 0,0 mm 8,3 km/h (2 Bft) O-SO 112 4,7 C 15,8 km/h (3 Bft)
28.09.2015 10:45 7,6 C 12,6 C 85 % 1030,2 hPa 0,0 mm 7,3 km/h (2 Bft) O-NO 67 5,2 C 8,3 km/h (2 Bft)
28.09.2015 10:50 8,0 C 13,4 C 84 % 1030,2 hPa 0,0 mm 5,4 km/h (1 Bft) O-NO 67 5,5 C 12,2 km/h (2 Bft)
28.09.2015 10:55 8,3 C 13,5 C 83 % 1030,5 hPa 0,0 mm 5,4 km/h (1 Bft) N-NO 22 5,6 C 7,0 km/h (2 Bft)
28.09.2015 11:00 8,5 C 13,7 C 82 % 1030,5 hPa 0,0 mm 6,2 km/h (2 Bft) O-NO 67 5,6 C 9,8 km/h (2 Bft)
28.09.2015 11:05 8,8 C 13,8 C 81 % 1030,5 hPa 0,0 mm 5,2 km/h (1 Bft) O-NO 67 5,7 C 2,6 km/h (1 Bft)
28.09.2015 11:10 9,4 C 14,8 C 80 % 1030,5 hPa 0,0 mm 2,8 km/h (1 Bft) O-NO 67 6,1 C 0,0 km/h (0 Bft)
28.09.2015 11:15 9,4 C 14,9 C 79 % 1030,5 hPa 0,0 mm 4,4 km/h (1 Bft) N-NO 22 5,9 C 16,1 km/h (3 Bft)
28.09.2015 11:20 9,5 C 14,6 C 78 % 1030,5 hPa 0,0 mm 7,5 km/h (2 Bft) N-NO 22 5,9 C 18,4 km/h (3 Bft)
28.09.2015 11:25 9,5 C 13,7 C 76 % 1030,5 hPa 0,0 mm 8,8 km/h (2 Bft) NO 45 5,5 C 5,4 km/h (1 Bft)
28.09.2015 11:30 9,6 C 13,8 C 76 % 1030,5 hPa 0,0 mm 8,0 km/h (2 Bft) SO 135 5,6 C 23,8 km/h (4 Bft)
28.09.2015 11:35 10,0 C 14,4 C 75 % 1030,4 hPa 0,0 mm 6,0 km/h (2 Bft) O-NO 67 5,8 C 7,0 km/h (2 Bft)
28.09.2015 11:40 10,5 C 15,0 C 73 % 1030,4 hPa 0,0 mm 7,5 km/h (2 Bft) NO 45 5,9 C 15,0 km/h (3 Bft)
28.09.2015 11:45 10,8 C 15,3 C 72 % 1030,4 hPa 0,0 mm 8,0 km/h (2 Bft) O-SO 112 6,0 C 6,2 km/h (2 Bft)
28.09.2015 11:50 11,0 C 15,6 C 68 % 1030,4 hPa 0,0 mm 9,1 km/h (2 Bft) N-NW 337 5,3 C 14,0 km/h (3 Bft)
28.09.2015 11:55 11,2 C 15,7 C 68 % 1030,4 hPa 0,0 mm 8,8 km/h (2 Bft) O-NO 67 5,5 C 9,8 km/h (2 Bft)
28.09.2015 12:00 11,4 C 15,6 C 65 % 1030,4 hPa 0,0 mm 11,1 km/h (2 Bft) O-SO 112 5,1 C 22,5 km/h (4 Bft)
28.09.2015 12:05 11,5 C 15,5 C 64 % 1030,4 hPa 0,0 mm 10,9 km/h (2 Bft) S-SO 157 4,9 C 13,2 km/h (3 Bft)
28.09.2015 12:10 11,5 C 15,3 C 60 % 1030,4 hPa 0,0 mm 13,5 km/h (3 Bft) NO 45 4,0 C 26,7 km/h (4 Bft)
28.09.2015 12:15 11,9 C 15,7 C 59 % 1030,3 hPa 0,0 mm 12,7 km/h (3 Bft) SO 135 4,1 C 12,9 km/h (3 Bft)
28.09.2015 12:20 12,2 C 16,3 C 59 % 1030,3 hPa 0,0 mm 10,4 km/h (2 Bft) NO 45 4,4 C 33,7 km/h (5 Bft)
28.09.2015 12:25 11,9 C 16,1 C 57 % 1030,3 hPa 0,0 mm 12,4 km/h (3 Bft) NO 45 3,7 C 23,6 km/h (4 Bft)
28.09.2015 12:30 12,2 C 16,4 C 56 % 1030,3 hPa 0,0 mm 14,0 km/h (3 Bft) O 90 3,7 C 17,6 km/h (3 Bft)
28.09.2015 12:35 11,9 C 16,1 C 54 % 1030,2 hPa 0,0 mm 13,5 km/h (3 Bft) NO 45 2,9 C 6,5 km/h (2 Bft)
28.09.2015 12:40 12,5 C 16,7 C 55 % 1030,2 hPa 0,0 mm 12,7 km/h (3 Bft) O-NO 67 3,7 C 28,7 km/h (4 Bft)
28.09.2015 12:45 12,5 C 17,1 C 54 % 1030,2 hPa 0,0 mm 11,4 km/h (2 Bft) O-NO 67 3,5 C 19,7 km/h (3 Bft)
28.09.2015 12:50 12,5 C 16,7 C 53 % 1030,2 hPa 0,0 mm 14,8 km/h (3 Bft) N-NO 22 3,2 C 41,4 km/h (6 Bft)
28.09.2015 12:55 12,5 C 16,2 C 53 % 1030,1 hPa 0,0 mm 16,6 km/h (3 Bft) N-NO 22 3,2 C 20,2 km/h (4 Bft)
28.09.2015 13:00 12,6 C 15,7 C 54 % 1030,1 hPa 0,0 mm 14,0 km/h (3 Bft) NO 45 3,5 C 22,3 km/h (4 Bft)
28.09.2015 13:05 12,5 C 15,1 C 54 % 1030,1 hPa 0,0 mm 14,5 km/h (3 Bft) O 90 3,5 C 9,6 km/h (2 Bft)
28.09.2015 13:10 12,9 C 15,2 C 54 % 1030,1 hPa 0,0 mm 14,8 km/h (3 Bft) N-NW 337 3,8 C 13,5 km/h (3 Bft)
28.09.2015 13:15 13,1 C 16,0 C 52 % 1030,4 hPa 0,0 mm 12,7 km/h (3 Bft) O-NO 67 3,5 C 14,8 km/h (3 Bft)
28.09.2015 13:20 12,9 C 16,2 C 52 % 1030,4 hPa 0,0 mm 15,5 km/h (3 Bft) O 90 3,3 C 50,8 km/h (7 Bft)
28.09.2015 13:25 12,3 C 15,8 C 53 % 1030,4 hPa 0,0 mm 16,6 km/h (3 Bft) NO 45 3,0 C 24,1 km/h (4 Bft)
28.09.2015 13:30 12,4 C 15,3 C 54 % 1030,4 hPa 0,0 mm 14,0 km/h (3 Bft) NO 45 3,4 C 23,8 km/h (4 Bft)
28.09.2015 13:35 12,5 C 16,5 C 54 % 1030,3 hPa 0,0 mm 13,2 km/h (3 Bft) NO 45 3,5 C 11,4 km/h (2 Bft)
28.09.2015 13:40 12,4 C 16,0 C 54 % 1030,3 hPa 0,0 mm 12,4 km/h (3 Bft) O-SO 112 3,4 C 21,0 km/h (4 Bft)
28.09.2015 13:45 12,2 C 15,4 C 53 % 1030,3 hPa 0,0 mm 12,2 km/h (2 Bft) NO 45 2,9 C 17,3 km/h (3 Bft)
28.09.2015 13:50 12,6 C 15,4 C 53 % 1030,3 hPa 0,0 mm 14,8 km/h (3 Bft) O-NO 67 3,3 C 25,6 km/h (4 Bft)
28.09.2015 13:55 13,1 C 17,2 C 51 % 1030,1 hPa 0,0 mm 13,2 km/h (3 Bft) NO 45 3,2 C 12,7 km/h (3 Bft)
28.09.2015 13:57 13,1 C 17,2 C 51 % 1030,1 hPa 0,0 mm 13,2 km/h (3 Bft) NO 45 3,2 C 12,7 km/h (3 Bft)
28.09.2015 14:00 13,1 C 17,2 C 51 % 1030,1 hPa 0,0 mm 13,2 km/h (3 Bft) NO 45 3,2 C 12,7 km/h (3 Bft)
28.09.2015 14:05 12,8 C 17,0 C 53 % 1030,1 hPa 0,0 mm 11,4 km/h (2 Bft) NO 45 3,5 C 15,0 km/h (3 Bft)
28.09.2015 14:10 12,3 C 16,0 C 53 % 1030,1 hPa 0,0 mm 12,4 km/h (3 Bft) N-NO 22 3,0 C 26,2 km/h (4 Bft)
28.09.2015 14:15 12,0 C 15,3 C 53 % 1030,0 hPa 0,0 mm 14,2 km/h (3 Bft) O-NO 67 2,7 C 8,3 km/h (2 Bft)
28.09.2015 14:20 11,7 C 14,1 C 55 % 1030,0 hPa 0,0 mm 16,3 km/h (3 Bft) O-NO 67 3,0 C 18,6 km/h (3 Bft)
28.09.2015 14:25 11,5 C 13,3 C 55 % 1030,0 hPa 0,0 mm 16,6 km/h (3 Bft) O-NO 67 2,8 C 14,5 km/h (3 Bft)
28.09.2015 14:30 11,8 C 13,3 C 56 % 1030,0 hPa 0,0 mm 14,0 km/h (3 Bft) N-NO 22 3,3 C 35,0 km/h (5 Bft)
28.09.2015 14:35 11,6 C 13,2 C 55 % 1029,9 hPa 0,0 mm 14,8 km/h (3 Bft) O-NO 67 2,9 C 25,1 km/h (4 Bft)
28.09.2015 14:40 11,4 C 12,9 C 56 % 1029,9 hPa 0,0 mm 16,1 km/h (3 Bft) NO 45 2,9 C 16,8 km/h (3 Bft)
28.09.2015 14:45 11,3 C 12,9 C 56 % 1029,9 hPa 0,0 mm 12,9 km/h (3 Bft) O-NO 67 2,8 C 14,0 km/h (3 Bft)
28.09.2015 14:50 11,3 C 12,9 C 57 % 1029,9 hPa 0,0 mm 11,4 km/h (2 Bft) O-NO 67 3,1 C 9,3 km/h (2 Bft)
28.09.2015 14:55 11,3 C 13,0 C 56 % 1029,7 hPa 0,0 mm 12,9 km/h (3 Bft) N-NO 22 2,8 C 24,6 km/h (4 Bft)
28.09.2015 15:00 11,3 C 12,7 C 57 % 1029,7 hPa 0,0 mm 11,9 km/h (2 Bft) N 360 3,1 C 10,9 km/h (2 Bft)
28.09.2015 15:05 11,4 C 12,7 C 56 % 1029,7 hPa 0,0 mm 12,4 km/h (3 Bft) N-NO 22 2,9 C 23,3 km/h (4 Bft)
28.09.2015 15:10 11,3 C 12,4 C 57 % 1029,7 hPa 0,0 mm 12,2 km/h (2 Bft) NO 45 3,1 C 8,8 km/h (2 Bft)
28.09.2015 15:15 11,2 C 12,5 C 56 % 1029,4 hPa 0,0 mm 13,2 km/h (3 Bft) O-SO 112 2,8 C 23,3 km/h (4 Bft)
28.09.2015 15:20 11,0 C 12,4 C 56 % 1029,4 hPa 0,0 mm 13,7 km/h (3 Bft) O-NO 67 2,6 C 10,1 km/h (2 Bft)
28.09.2015 15:25 10,9 C 12,0 C 57 % 1029,4 hPa 0,0 mm 14,5 km/h (3 Bft) O-NO 67 2,7 C 19,2 km/h (3 Bft)
28.09.2015 15:30 10,8 C 11,6 C 57 % 1029,4 hPa 0,0 mm 14,8 km/h (3 Bft) O-NO 67 2,6 C 15,5 km/h (3 Bft)
28.09.2015 15:35 10,8 C 11,2 C 58 % 1029,3 hPa 0,0 mm 14,0 km/h (3 Bft) S-SO 157 2,9 C 13,7 km/h (3 Bft)
28.09.2015 15:40 10,7 C 11,2 C 58 % 1029,3 hPa 0,0 mm 11,7 km/h (2 Bft) O-NO 67 2,8 C 5,4 km/h (1 Bft)
28.09.2015 15:45 10,7 C 11,3 C 59 % 1029,3 hPa 0,0 mm 12,9 km/h (3 Bft) N-NO 22 3,0 C 27,4 km/h (4 Bft)
28.09.2015 15:50 10,7 C 11,2 C 59 % 1029,3 hPa 0,0 mm 12,7 km/h (3 Bft) NW 315 3,0 C 6,0 km/h (2 Bft)
28.09.2015 15:55 10,6 C 11,0 C 59 % 1029,4 hPa 0,0 mm 11,9 km/h (2 Bft) NO 45 2,9 C 22,5 km/h (4 Bft)
28.09.2015 16:00 10,6 C 11,1 C 59 % 1029,4 hPa 0,0 mm 10,6 km/h (2 Bft) S 180 2,9 C 14,5 km/h (3 Bft)
28.09.2015 16:05 10,5 C 10,9 C 59 % 1029,4 hPa 0,0 mm 11,1 km/h (2 Bft) SO 135 2,8 C 15,3 km/h (3 Bft)
28.09.2015 16:10 10,5 C 11,2 C 60 % 1029,4 hPa 0,0 mm 9,8 km/h (2 Bft) O-NO 67 3,1 C 12,2 km/h (2 Bft)
28.09.2015 16:15 10,5 C 11,0 C 60 % 1029,2 hPa 0,0 mm 9,8 km/h (2 Bft) NO 45 3,1 C 9,8 km/h (2 Bft)
28.09.2015 16:20 10,6 C 11,2 C 60 % 1029,2 hPa 0,0 mm 9,3 km/h (2 Bft) S 180 3,2 C 11,9 km/h (2 Bft)
28.09.2015 16:25 10,6 C 11,3 C 59 % 1029,2 hPa 0,0 mm 9,1 km/h (2 Bft) NO 45 2,9 C 16,6 km/h (3 Bft)
28.09.2015 16:30 10,6 C 11,2 C 59 % 1029,2 hPa 0,0 mm 12,7 km/h (3 Bft) NO 45 2,9 C 23,3 km/h (4 Bft)
28.09.2015 16:35 10,5 C 10,9 C 59 % 1029,1 hPa 0,0 mm 13,2 km/h (3 Bft) NO 45 2,8 C 7,3 km/h (2 Bft)
28.09.2015 16:40 10,6 C 10,8 C 59 % 1029,1 hPa 0,0 mm 12,7 km/h (3 Bft) O-NO 67 2,9 C 16,3 km/h (3 Bft)
28.09.2015 16:45 10,6 C 10,9 C 59 % 1029,1 hPa 0,0 mm 11,1 km/h (2 Bft) O-NO 67 2,9 C 24,3 km/h (4 Bft)
28.09.2015 16:50 10,5 C 10,8 C 59 % 1029,1 hPa 0,0 mm 12,4 km/h (3 Bft) O-NO 67 2,8 C 14,5 km/h (3 Bft)
28.09.2015 16:55 10,5 C 10,7 C 59 % 1029,2 hPa 0,0 mm 14,0 km/h (3 Bft) S-SO 157 2,8 C 14,5 km/h (3 Bft)
28.09.2015 17:00 10,5 C 10,8 C 60 % 1029,2 hPa 0,0 mm 10,4 km/h (2 Bft) O-NO 67 3,1 C 8,0 km/h (2 Bft)
28.09.2015 17:05 10,5 C 11,1 C 60 % 1029,2 hPa 0,0 mm 8,0 km/h (2 Bft) NO 45 3,1 C 8,0 km/h (2 Bft)
28.09.2015 17:10 10,4 C 10,9 C 60 % 1029,2 hPa 0,0 mm 9,3 km/h (2 Bft) O-NO 67 3,0 C 14,0 km/h (3 Bft)
28.09.2015 17:15 10,4 C 10,6 C 60 % 1029,0 hPa 0,0 mm 10,6 km/h (2 Bft) NO 45 3,0 C 12,4 km/h (3 Bft)
28.09.2015 17:20 10,4 C 10,5 C 60 % 1029,0 hPa 0,0 mm 10,9 km/h (2 Bft) S-SW 202 3,0 C 6,7 km/h (2 Bft)
28.09.2015 17:25 10,3 C 10,7 C 60 % 1029,0 hPa 0,0 mm 9,1 km/h (2 Bft) O-NO 67 2,9 C 11,9 km/h (2 Bft)
28.09.2015 17:30 10,2 C 10,3 C 59 % 1029,0 hPa 0,0 mm 9,6 km/h (2 Bft) SO 135 2,6 C 14,0 km/h (3 Bft)
28.09.2015 17:35 10,1 C 10,2 C 60 % 1028,9 hPa 0,0 mm 10,9 km/h (2 Bft) O 90 2,7 C 15,8 km/h (3 Bft)
28.09.2015 17:40 10,1 C 10,2 C 60 % 1028,9 hPa 0,0 mm 9,3 km/h (2 Bft) NO 45 2,7 C 23,0 km/h (4 Bft)
28.09.2015 17:45 10,1 C 10,3 C 60 % 1028,9 hPa 0,0 mm 7,8 km/h (2 Bft) NO 45 2,7 C 10,4 km/h (2 Bft)
28.09.2015 17:50 10,0 C 10,0 C 61 % 1028,9 hPa 0,0 mm 8,8 km/h (2 Bft) NO 45 2,8 C 18,6 km/h (3 Bft)
28.09.2015 17:55 10,0 C 10,1 C 61 % 1028,9 hPa 0,0 mm 8,0 km/h (2 Bft) O 90 2,8 C 11,7 km/h (2 Bft)
28.09.2015 18:00 9,9 C 10,1 C 62 % 1028,9 hPa 0,0 mm 6,0 km/h (2 Bft) O-NO 67 3,0 C 14,5 km/h (3 Bft)
28.09.2015 18:05 9,8 C 10,0 C 62 % 1028,9 hPa 0,0 mm 5,7 km/h (1 Bft) NO 45 2,9 C 4,7 km/h (1 Bft)
28.09.2015 18:10 9,8 C 9,9 C 62 % 1028,9 hPa 0,0 mm 6,2 km/h (2 Bft) O-SO 112 2,9 C 3,4 km/h (1 Bft)
28.09.2015 18:15 9,7 C 9,9 C 63 % 1029,1 hPa 0,0 mm 6,0 km/h (2 Bft) O-SO 112 3,0 C 7,8 km/h (2 Bft)
28.09.2015 18:20 9,7 C 9,7 C 63 % 1029,1 hPa 0,0 mm 5,2 km/h (1 Bft) O-NO 67 3,0 C 5,2 km/h (1 Bft)
28.09.2015 18:25 9,6 C 9,6 C 63 % 1029,1 hPa 0,0 mm 5,4 km/h (1 Bft) O-SO 112 2,9 C 15,5 km/h (3 Bft)
28.09.2015 18:30 9,5 C 9,5 C 63 % 1029,1 hPa 0,0 mm 5,2 km/h (1 Bft) NO 45 2,8 C 0,0 km/h (0 Bft)
28.09.2015 18:35 9,4 C 9,4 C 63 % 1028,9 hPa 0,0 mm 5,2 km/h (1 Bft) O-SO 112 2,7 C 6,0 km/h (2 Bft)
28.09.2015 18:40 9,3 C 9,3 C 64 % 1028,9 hPa 0,0 mm 4,4 km/h (1 Bft) NO 45 2,8 C 13,7 km/h (3 Bft)
28.09.2015 18:45 9,2 C 9,1 C 65 % 1028,9 hPa 0,0 mm 5,2 km/h (1 Bft) NO 45 3,0 C 10,1 km/h (2 Bft)
28.09.2015 18:50 9,1 C 9,0 C 65 % 1028,9 hPa 0,0 mm 7,3 km/h (2 Bft) N-NO 22 2,9 C 16,3 km/h (3 Bft)
28.09.2015 18:55 8,9 C 8,8 C 65 % 1029,1 hPa 0,0 mm 6,7 km/h (2 Bft) NO 45 2,7 C 11,1 km/h (2 Bft)
28.09.2015 19:00 8,7 C 8,6 C 65 % 1029,1 hPa 0,0 mm 3,6 km/h (1 Bft) O-NO 67 2,5 C 0,0 km/h (0 Bft)
28.09.2015 19:05 8,5 C 8,4 C 66 % 1029,1 hPa 0,0 mm 2,1 km/h (1 Bft) NO 45 2,5 C 0,0 km/h (0 Bft)
28.09.2015 19:10 8,4 C 8,3 C 66 % 1029,1 hPa 0,0 mm 1,8 km/h (1 Bft) O-SO 112 2,4 C 0,0 km/h (0 Bft)
28.09.2015 19:15 8,3 C 8,1 C 67 % 1029,2 hPa 0,0 mm 1,8 km/h (1 Bft) S 180 2,5 C 12,4 km/h (3 Bft)
28.09.2015 19:20 8,4 C 8,2 C 68 % 1029,2 hPa 0,0 mm 2,8 km/h (1 Bft) O-NO 67 2,8 C 10,4 km/h (2 Bft)
28.09.2015 19:25 8,3 C 8,1 C 67 % 1029,2 hPa 0,0 mm 3,4 km/h (1 Bft) N-NW 337 2,5 C 0,0 km/h (0 Bft)
28.09.2015 19:30 8,2 C 8,0 C 68 % 1029,2 hPa 0,0 mm 3,1 km/h (1 Bft) O-NO 67 2,7 C 5,7 km/h (1 Bft)
28.09.2015 19:35 8,2 C 8,0 C 68 % 1029,4 hPa 0,0 mm 3,4 km/h (1 Bft) O 90 2,7 C 0,0 km/h (0 Bft)
28.09.2015 19:40 8,1 C 7,9 C 68 % 1029,4 hPa 0,0 mm 3,1 km/h (1 Bft) N-NO 22 2,6 C 0,0 km/h (0 Bft)
28.09.2015 19:45 8,1 C 7,9 C 69 % 1029,4 hPa 0,0 mm 2,8 km/h (1 Bft) NO 45 2,8 C 5,2 km/h (1 Bft)
28.09.2015 19:50 7,7 C 7,5 C 69 % 1029,4 hPa 0,0 mm 3,6 km/h (1 Bft) S 180 2,4 C 4,4 km/h (1 Bft)
28.09.2015 19:55 7,6 C 7,4 C 70 % 1029,2 hPa 0,0 mm 3,1 km/h (1 Bft) SW 225 2,5 C 2,8 km/h (1 Bft)
28.09.2015 19:58 7,4 C 7,1 C 71 % 1029,2 hPa 0,0 mm 2,8 km/h (1 Bft) NO 45 2,5 C 0,0 km/h (0 Bft)
28.09.2015 20:00 7,4 C 7,1 C 71 % 1029,2 hPa 0,0 mm 2,8 km/h (1 Bft) NO 45 2,5 C 0,0 km/h (0 Bft)
28.09.2015 20:05 7,1 C 6,9 C 70 % 1029,2 hPa 0,0 mm 1,8 km/h (1 Bft) O-SO 112 2,0 C 0,0 km/h (0 Bft)
28.09.2015 20:10 7,2 C 6,9 C 73 % 1029,2 hPa 0,0 mm 2,1 km/h (1 Bft) O-SO 112 2,7 C 0,0 km/h (0 Bft)
28.09.2015 20:15 7,2 C 6,9 C 73 % 1029,2 hPa 0,0 mm 2,8 km/h (1 Bft) S 180 2,7 C 6,2 km/h (2 Bft)
28.09.2015 20:20 7,1 C 6,8 C 73 % 1029,2 hPa 0,0 mm 1,8 km/h (1 Bft) O-SO 112 2,6 C 2,6 km/h (1 Bft)
28.09.2015 20:25 7,0 C 6,7 C 73 % 1029,2 hPa 0,0 mm 2,1 km/h (1 Bft) W 270 2,5 C 6,2 km/h (2 Bft)
28.09.2015 20:30 6,9 C 6,6 C 74 % 1029,2 hPa 0,0 mm 1,6 km/h (1 Bft) O-NO 67 2,6 C 0,0 km/h (0 Bft)
28.09.2015 20:35 6,9 C 6,6 C 74 % 1029,4 hPa 0,0 mm 1,0 km/h (0 Bft) O-NO 67 2,6 C 0,0 km/h (0 Bft)
28.09.2015 20:40 6,9 C 6,7 C 74 % 1029,4 hPa 0,0 mm 1,8 km/h (1 Bft) NO 45 2,6 C 0,0 km/h (0 Bft)
28.09.2015 20:45 6,6 C 6,4 C 74 % 1029,4 hPa 0,0 mm 2,1 km/h (1 Bft) O 90 2,3 C 3,9 km/h (1 Bft)
28.09.2015 20:50 6,3 C 6,1 C 74 % 1029,4 hPa 0,0 mm 1,0 km/h (0 Bft) SO 135 2,0 C 0,0 km/h (0 Bft)
28.09.2015 20:55 6,1 C 5,9 C 75 % 1029,3 hPa 0,0 mm 0,5 km/h (0 Bft) SW 225 2,0 C 0,0 km/h (0 Bft)
28.09.2015 21:00 6,0 C 5,7 C 76 % 1029,3 hPa 0,0 mm 0,0 km/h (0 Bft) O-SO 112 2,1 C 0,0 km/h (0 Bft)
28.09.2015 21:05 6,0 C 5,7 C 77 % 1029,3 hPa 0,0 mm 0,5 km/h (0 Bft) O-NO 67 2,3 C 0,0 km/h (0 Bft)
28.09.2015 21:10 5,8 C 5,5 C 78 % 1029,3 hPa 0,0 mm 0,8 km/h (0 Bft) SO 135 2,3 C 0,0 km/h (0 Bft)
28.09.2015 21:15 5,8 C 5,4 C 78 % 1029,2 hPa 0,0 mm 0,3 km/h (0 Bft) SO 135 2,3 C 0,0 km/h (0 Bft)
28.09.2015 21:20 5,7 C 5,3 C 79 % 1029,2 hPa 0,0 mm 0,3 km/h (0 Bft) O-SO 112 2,3 C 4,9 km/h (1 Bft)
28.09.2015 21:25 5,8 C 5,4 C 79 % 1029,2 hPa 0,0 mm 0,5 km/h (0 Bft) SW 225 2,4 C 0,0 km/h (0 Bft)
28.09.2015 21:30 5,9 C 5,6 C 79 % 1029,2 hPa 0,0 mm 0,5 km/h (0 Bft) S 180 2,5 C 0,0 km/h (0 Bft)
28.09.2015 21:35 5,9 C 5,6 C 79 % 1029,3 hPa 0,0 mm 0,0 km/h (0 Bft) S 180 2,5 C 0,0 km/h (0 Bft)
28.09.2015 21:40 6,0 C 5,7 C 79 % 1029,3 hPa 0,0 mm 0,5 km/h (0 Bft) S 180 2,6 C 4,9 km/h (1 Bft)
28.09.2015 21:45 6,0 C 5,7 C 79 % 1029,3 hPa 0,0 mm 0,5 km/h (0 Bft) S-SW 202 2,6 C 0,0 km/h (0 Bft)
28.09.2015 21:50 5,8 C 5,5 C 80 % 1029,3 hPa 0,0 mm 0,8 km/h (0 Bft) O 90 2,6 C 4,4 km/h (1 Bft)
28.09.2015 21:55 5,8 C 5,5 C 80 % 1029,2 hPa 0,0 mm 1,0 km/h (0 Bft) S 180 2,6 C 0,0 km/h (0 Bft)
28.09.2015 22:00 5,6 C 5,3 C 80 % 1029,2 hPa 0,0 mm 1,6 km/h (1 Bft) SW 225 2,4 C 0,0 km/h (0 Bft)
28.09.2015 22:05 5,7 C 5,4 C 81 % 1029,2 hPa 0,0 mm 2,3 km/h (1 Bft) O-NO 67 2,7 C 7,3 km/h (2 Bft)
28.09.2015 22:10 5,6 C 5,3 C 81 % 1029,2 hPa 0,0 mm 2,3 km/h (1 Bft) O-NO 67 2,6 C 4,9 km/h (1 Bft)
28.09.2015 22:15 5,7 C 5,4 C 81 % 1029,1 hPa 0,0 mm 1,6 km/h (1 Bft) N-NO 22 2,7 C 0,0 km/h (0 Bft)
28.09.2015 22:20 5,6 C 5,3 C 81 % 1029,1 hPa 0,0 mm 2,3 km/h (1 Bft) SW 225 2,6 C 6,5 km/h (2 Bft)
28.09.2015 22:25 5,2 C 5,0 C 81 % 1029,1 hPa 0,0 mm 3,4 km/h (1 Bft) S 180 2,2 C 3,6 km/h (1 Bft)
28.09.2015 22:30 5,1 C 4,8 C 82 % 1029,1 hPa 0,0 mm 2,1 km/h (1 Bft) S-SO 157 2,3 C 0,0 km/h (0 Bft)
28.09.2015 22:35 5,1 C 4,7 C 83 % 1029,1 hPa 0,0 mm 0,5 km/h (0 Bft) S-SO 157 2,5 C 3,9 km/h (1 Bft)
28.09.2015 22:40 4,9 C 4,5 C 83 % 1029,1 hPa 0,0 mm 0,3 km/h (0 Bft) S 180 2,3 C 0,0 km/h (0 Bft)
28.09.2015 22:45 4,9 C 4,5 C 84 % 1029,1 hPa 0,0 mm 0,3 km/h (0 Bft) SO 135 2,4 C 0,0 km/h (0 Bft)
28.09.2015 22:50 4,8 C 4,4 C 84 % 1029,1 hPa 0,0 mm 0,0 km/h (0 Bft) S-SO 157 2,3 C 0,0 km/h (0 Bft)
28.09.2015 22:55 4,7 C 4,3 C 80 % 1029,2 hPa 0,0 mm 0,0 km/h (0 Bft) SO 135 1,6 C 0,0 km/h (0 Bft)
28.09.2015 23:00 4,0 C 3,7 C 83 % 1029,2 hPa 0,0 mm 0,0 km/h (0 Bft) SO 135 1,4 C 0,0 km/h (0 Bft)
28.09.2015 23:05 4,5 C 4,0 C 84 % 1029,2 hPa 0,0 mm 0,5 km/h (0 Bft) S 180 2,0 C 2,6 km/h (1 Bft)
28.09.2015 23:10 4,5 C 4,1 C 81 % 1029,2 hPa 0,0 mm 0,8 km/h (0 Bft) S-SO 157 1,5 C 0,0 km/h (0 Bft)
28.09.2015 23:15 4,3 C 4,0 C 80 % 1028,9 hPa 0,0 mm 0,5 km/h (0 Bft) O-SO 112 1,2 C 0,0 km/h (0 Bft)
28.09.2015 23:20 4,2 C 3,8 C 84 % 1028,9 hPa 0,0 mm 0,0 km/h (0 Bft) S-SO 157 1,7 C 0,0 km/h (0 Bft)
28.09.2015 23:25 4,3 C 3,9 C 81 % 1028,9 hPa 0,0 mm 0,0 km/h (0 Bft) SO 135 1,3 C 0,0 km/h (0 Bft)
28.09.2015 23:30 4,3 C 3,9 C 84 % 1028,9 hPa 0,0 mm 0,0 km/h (0 Bft) SO 135 1,8 C 0,0 km/h (0 Bft)
28.09.2015 23:35 4,4 C 4,1 C 81 % 1028,9 hPa 0,0 mm 0,0 km/h (0 Bft) N 360 1,4 C 0,0 km/h (0 Bft)
28.09.2015 23:40 4,4 C 4,0 C 85 % 1028,9 hPa 0,0 mm 0,0 km/h (0 Bft) W-SW 247 2,1 C 0,0 km/h (0 Bft)
28.09.2015 23:45 4,4 C 4,0 C 85 % 1028,9 hPa 0,0 mm 0,3 km/h (0 Bft) W 270 2,1 C 2,6 km/h (1 Bft)
28.09.2015 23:50 4,8 C 4,4 C 85 % 1028,9 hPa 0,0 mm 1,0 km/h (0 Bft) N-NO 22 2,5 C 2,6 km/h (1 Bft)
28.09.2015 23:55 4,9 C 4,6 C 85 % 1028,7 hPa 0,0 mm 1,0 km/h (0 Bft) O-SO 112 2,6 C 0,0 km/h (0 Bft)
_ Min-Zeit 05:10 05:10 14:00 06:10 - 23:40 - - 05:10 23:55
Minimum _ 0,4 C 0,0 C 51 % 1027,9 hPa - 0,0 km/h (0 Bft) - - -0,9 C 0,0 km/h (0 Bft)
_ Max-Zeit 14:00 14:00 06:20 11:30 23:55 14:25 - - 11:10 13:20
Maximum _ 13,1 C 17,2 C 93 % 1030,5 hPa 0,0 mm 16,6 km/h
O-NO (3 Bft)
- - 6,1 C 50,8 km/h
O (7 Bft)
Durchschnitt _ 6,3 C 7,1 C 77 % 1029,0 hPa #0,0 mm 4,4 km/h (1 Bft) NO - 2,2 C 6,4 km/h (2 Bft)